Date String (YYYY-MM-DD hh:mm:ss) UTC,Instrument flags,Ambient pressure (hPa),Sample flow (lpm),Bypass flow (lpm),Sample temperature (°C),Ambient temperature (°C),ASC tube jacket temperature (°C),LED temperature (°C),Box temperature (°C),Sample RH (%),Span deviation,Mass concentration (μg/m³),Mass concentration (μg/m³),Mass concentration (μg/m³)
DateTimeUTC,F1_M11,P_M11,Q1_M11,Q2_M11,T1_M11,T2_M11,T3_M11,T4_M11,T5_M11,U1_M11,ZSPAN_M11,X0_M11,X2_M11,X1_M11
2022-08-18 17:00:00,,0831.5,5.00,0.00,29.4,27.5,00.0,38.1,31.1,23.1,0000.0,0013.10,0006.85,0006.29
2022-08-18 17:01:00,,0831.5,4.99,0.00,29.4,27.6,00.0,38.1,31.1,22.4,0000.0,0013.25,0006.83,0006.28
2022-08-18 17:02:00,,0831.5,5.01,0.00,29.4,27.8,00.0,38.1,31.2,22.7,0000.0,0013.94,0006.88,0006.29
2022-08-18 17:03:00,,0831.4,4.99,0.00,29.4,28.0,00.0,38.1,31.3,22.4,0000.0,0012.96,0006.85,0006.29
2022-08-18 17:04:00,,0831.5,5.00,0.00,29.4,28.1,00.0,38.2,31.4,21.8,0000.0,0012.77,0006.84,0006.29
2022-08-18 17:05:00,,0831.5,5.00,0.00,29.5,28.3,00.0,38.2,31.4,21.3,0000.0,0012.60,0006.85,0006.28
2022-08-18 17:06:00,,0831.5,5.00,0.00,29.5,28.4,00.0,38.2,31.5,21.8,0000.0,0011.98,0006.89,0006.29
2022-08-18 17:07:00,,0831.5,5.00,0.00,29.5,28.5,00.0,38.2,31.5,21.9,0000.0,0012.40,0006.91,0006.29
2022-08-18 17:08:00,,0831.4,4.99,0.00,29.5,28.0,00.0,38.2,31.3,21.6,0000.0,0012.39,0006.91,0006.28
2022-08-18 17:09:00,,0831.4,5.00,0.00,29.5,27.4,00.0,38.1,31.2,22.5,0000.0,0012.33,0006.88,0006.28
2022-08-18 17:10:00,,0831.5,4.99,0.00,29.4,27.3,00.0,38.1,31.2,22.6,0000.0,0012.38,0006.90,0006.29
2022-08-18 17:11:00,,0831.4,5.01,0.00,29.4,27.4,00.0,38.1,31.1,22.8,0000.0,0012.34,0006.90,0006.29
2022-08-18 17:12:00,,0831.4,5.00,0.00,29.3,27.5,00.0,38.1,31.1,22.6,0000.0,0012.27,0006.93,0006.30
2022-08-18 17:13:00,,0831.4,4.99,0.00,29.3,27.7,00.0,38.1,31.2,22.5,0000.0,0012.11,0006.92,0006.29
2022-08-18 17:14:00,,0831.4,5.01,0.00,29.4,27.9,00.0,38.1,31.2,21.9,0000.0,0012.72,0006.95,0006.30
2022-08-18 17:15:00,,0831.4,5.01,0.00,29.4,28.0,00.0,38.1,31.3,22.4,0000.0,0013.17,0006.98,0006.31
2022-08-18 17:16:00,,0831.4,4.99,0.00,29.4,28.2,00.0,38.1,31.4,22.7,0000.0,0013.27,0006.97,0006.32
2022-08-18 17:17:00,,0831.4,5.00,0.00,29.5,28.3,00.0,38.2,31.4,22.3,0000.0,0013.15,0006.97,0006.33
2022-08-18 17:18:00,,0831.4,5.00,0.00,29.5,28.4,00.0,38.2,31.5,21.6,0002.3,0012.85,0006.99,0006.35
2022-08-18 17:19:00,,0831.5,4.99,0.00,29.5,28.0,00.0,38.1,31.3,21.8,0001.5,0012.96,0006.99,0006.37
2022-08-18 17:20:00,,0831.4,5.01,0.00,29.4,27.3,00.0,38.1,31.2,21.8,0000.9,0013.37,0006.99,0006.37
2022-08-18 17:21:00,,0831.4,5.00,0.00,29.4,27.2,00.0,38.1,31.1,23.2,0000.3,0013.52,0006.98,0006.36
2022-08-18 17:22:00,,0831.4,5.00,0.00,29.3,27.3,00.0,38.1,31.0,23.1,0002.3,0013.62,0007.04,0006.36
2022-08-18 17:23:00,,0831.4,5.00,0.00,29.3,27.4,00.0,38.1,31.0,22.3,0000.3,0013.55,0007.05,0006.37
2022-08-18 17:24:00,,0831.4,4.99,0.00,29.3,27.6,00.0,38.1,31.1,21.6,0000.0,0012.73,0007.06,0006.38
2022-08-18 17:25:00,,0831.4,5.01,0.00,29.3,27.8,00.0,38.1,31.2,21.9,0000.0,0012.05,0007.06,0006.38
2022-08-18 17:26:00,,0831.3,4.99,0.00,29.4,28.0,00.0,38.1,31.2,22.3,0000.7,0011.44,0007.04,0006.39
2022-08-18 17:27:00,,0831.3,5.00,0.00,29.4,28.1,00.0,38.1,31.3,22.0,0000.2,0011.78,0007.08,0006.40
2022-08-18 17:28:00,,0831.3,5.01,0.00,29.4,28.3,00.0,38.1,31.4,21.7,0000.0,0012.30,0007.05,0006.41
2022-08-18 17:29:00,,0831.3,5.00,0.00,29.5,28.4,00.0,38.2,31.4,21.8,0000.1,0012.25,0007.04,0006.41
2022-08-18 17:30:00,,0831.3,5.00,0.00,29.5,28.1,00.0,38.1,31.4,22.0,0001.4,0012.13,0007.04,0006.41
2022-08-18 17:31:00,,0831.2,4.99,0.00,29.4,27.5,00.0,38.1,31.2,21.5,0001.7,0011.66,0007.05,0006.42
2022-08-18 17:32:00,,0831.3,5.01,0.00,29.4,27.2,00.0,38.0,31.1,21.8,0001.9,0011.97,0007.07,0006.43
2022-08-18 17:33:00,,0831.3,5.00,0.00,29.3,27.2,00.0,38.0,31.1,22.2,0001.9,0011.97,0007.05,0006.45
2022-08-18 17:34:00,,0831.2,5.00,0.00,29.3,27.4,00.0,38.0,31.0,22.3,0002.3,0012.54,0007.04,0006.46
2022-08-18 17:35:00,,0831.3,4.99,0.00,29.3,27.5,00.0,38.0,31.1,22.3,0002.5,0012.60,0007.05,0006.47
2022-08-18 17:36:00,,0831.2,5.00,0.00,29.3,27.7,00.0,38.1,31.1,22.1,0002.4,0012.73,0007.09,0006.48
2022-08-18 17:37:00,,0831.2,5.00,0.00,29.3,27.9,00.0,38.1,31.2,22.7,0002.7,0012.88,0007.11,0006.48
2022-08-18 17:38:00,,0831.3,5.02,0.00,29.4,28.1,00.0,38.1,31.3,21.6,0003.0,0012.99,0007.08,0006.48
2022-08-18 17:39:00,,0831.2,5.00,0.00,29.4,28.2,00.0,38.1,31.4,21.5,0003.0,0012.54,0007.10,0006.49
2022-08-18 17:40:00,,0831.3,4.99,0.00,29.4,28.4,00.0,38.1,31.4,22.2,0003.0,0012.77,0007.14,0006.49
2022-08-18 17:41:00,,0831.3,5.00,0.00,29.5,28.2,00.0,38.1,31.4,22.6,0002.9,0013.82,0007.17,0006.49
2022-08-18 17:42:00,,0831.3,4.99,0.00,29.4,27.6,00.0,38.1,31.2,22.9,0002.7,0014.33,0007.17,0006.49
2022-08-18 17:43:00,,0831.3,5.01,0.00,29.4,27.2,00.0,38.0,31.1,24.2,0002.7,0015.12,0007.15,0006.48
2022-08-18 17:44:00,,0831.3,4.99,0.00,29.3,27.2,00.0,38.0,31.1,24.0,0003.0,0015.57,0007.15,0006.47
2022-08-18 17:45:00,,0831.3,5.00,0.00,29.3,27.4,00.0,38.0,31.0,24.4,0002.9,0014.87,0007.11,0006.45
2022-08-18 17:46:00,,0831.3,4.99,0.00,29.3,27.5,00.0,38.0,31.0,22.8,0002.6,0016.00,0007.10,0006.44
2022-08-18 17:47:00,,0831.3,5.00,0.00,29.3,27.7,00.0,38.0,31.1,22.5,0002.7,0017.12,0007.07,0006.42
2022-08-18 17:48:00,,0831.3,5.00,0.00,29.3,27.9,00.0,38.0,31.2,22.3,0002.5,0018.09,0007.08,0006.41
2022-08-18 17:49:00,,0831.3,5.01,0.00,29.3,28.0,00.0,38.1,31.3,22.0,0002.4,0017.59,0007.10,0006.42
2022-08-18 17:50:00,,0831.3,5.00,0.00,29.4,28.2,00.0,38.1,31.3,22.0,0002.5,0017.76,0007.11,0006.41
2022-08-18 17:51:00,,0831.3,5.01,0.00,29.4,28.2,00.0,38.1,31.3,21.7,0002.2,0018.04,0007.10,0006.41
2022-08-18 17:52:00,,0831.3,5.00,0.00,29.4,27.6,00.0,38.0,31.2,22.5,0001.9,0017.43,0007.07,0006.41
2022-08-18 17:53:00,,0831.3,5.00,0.00,29.3,27.2,00.0,38.0,31.1,22.4,0002.4,0016.91,0007.08,0006.41
2022-08-18 17:54:00,,0831.3,5.00,0.00,29.3,27.2,00.0,38.0,31.0,22.7,0002.6,0016.31,0007.07,0006.41
2022-08-18 17:55:00,,0831.2,4.99,0.00,29.2,27.3,00.0,38.0,31.0,22.6,0002.4,0016.01,0007.08,0006.42
2022-08-18 17:56:00,,0831.3,5.00,0.00,29.2,27.5,00.0,38.0,30.9,22.6,0002.4,0016.33,0007.14,0006.46
2022-08-18 17:57:00,,0831.3,5.00,0.00,29.2,27.6,00.0,38.0,31.0,23.7,0002.5,0015.55,0007.11,0006.47
2022-08-18 17:58:00,,0831.3,5.00,0.00,29.2,27.8,00.0,38.0,31.1,23.2,0002.6,0014.46,0007.14,0006.48
2022-08-18 17:59:00,,0831.3,5.00,0.00,29.3,28.0,00.0,38.0,31.2,23.3,0002.2,0013.54,0007.17,0006.49
